Time,TemperatureF,DewpointF,PressureIn,WindDirection,WindDirectionDegrees,WindSpeedMPH,WindSpeedGustMPH,Humidity,HourlyPrecipIn,Conditions,Clouds,dailyrainin,SoftwareType,DateUTC
2013-05-27 00:03:00,40.0,36.0,30.35,WNW,298,0.0,-999.0,85,-99.99,,,-99.99,,2013-05-27 04:03:00,
2013-05-27 00:12:00,40.0,36.0,30.35,WNW,298,0.0,-999.0,85,-99.99,,,-99.99,,2013-05-27 04:12:00,
2013-05-27 00:23:00,40.0,36.0,30.34,WNW,298,0.0,-999.0,87,-99.99,,,-99.99,,2013-05-27 04:23:00,
2013-05-27 00:33:00,40.0,36.0,30.34,WNW,298,0.0,-999.0,87,-99.99,,,-99.99,,2013-05-27 04:33:00,
2013-05-27 00:43:00,38.0,35.0,30.35,WNW,298,0.0,-999.0,88,-99.99,,,-99.99,,2013-05-27 04:43:00,
2013-05-27 00:53:00,38.0,35.0,30.35,WNW,298,0.0,-999.0,88,-99.99,,,-99.99,,2013-05-27 04:53:00,
2013-05-27 01:02:00,38.0,35.0,30.35,WNW,298,0.0,-999.0,89,-99.99,,,-99.99,,2013-05-27 05:02:00,
2013-05-27 01:12:00,38.0,35.0,30.35,WNW,298,0.0,-999.0,89,-99.99,,,-99.99,,2013-05-27 05:12:00,
2013-05-27 01:22:00,39.0,36.0,30.34,WNW,298,0.0,-999.0,90,-99.99,,,-99.99,,2013-05-27 05:22:00,
2013-05-27 01:32:00,38.0,35.0,30.35,WNW,298,0.0,-999.0,89,-99.99,,,-99.99,,2013-05-27 05:32:00,
2013-05-27 01:42:00,38.0,35.0,30.35,WNW,298,0.0,-999.0,89,-99.99,,,-99.99,,2013-05-27 05:42:00,
2013-05-27 01:52:00,37.0,34.0,30.34,WNW,298,0.0,-999.0,90,-99.99,,,-99.99,,2013-05-27 05:52:00,
2013-05-27 02:02:00,37.0,35.0,30.34,WNW,298,0.0,-999.0,91,-99.99,,,-99.99,,2013-05-27 06:02:00,
2013-05-27 02:11:00,37.0,35.0,30.34,WNW,298,0.0,-999.0,91,-99.99,,,-99.99,,2013-05-27 06:11:00,
2013-05-27 02:22:00,36.0,34.0,30.34,WNW,298,0.0,-999.0,91,-99.99,,,-99.99,,2013-05-27 06:22:00,
2013-05-27 02:32:00,36.0,34.0,30.34,WNW,298,0.0,-999.0,91,-99.99,,,-99.99,,2013-05-27 06:32:00,
2013-05-27 02:42:00,36.0,34.0,30.34,WNW,298,0.0,-999.0,91,-99.99,,,-99.99,,2013-05-27 06:42:00,
2013-05-27 02:52:00,36.0,34.0,30.34,WNW,298,0.0,-999.0,91,-99.99,,,-99.99,,2013-05-27 06:52:00,
2013-05-27 03:02:00,36.0,34.0,30.34,WNW,298,0.0,-999.0,91,-99.99,,,-99.99,,2013-05-27 07:02:00,
2013-05-27 03:11:00,36.0,34.0,30.34,WNW,298,0.0,-999.0,91,-99.99,,,-99.99,,2013-05-27 07:11:00,
2013-05-27 03:21:00,35.0,33.0,30.33,WNW,298,0.0,-999.0,92,-99.99,,,-99.99,,2013-05-27 07:21:00,
2013-05-27 03:32:00,35.0,33.0,30.33,WNW,298,0.0,-999.0,92,-99.99,,,-99.99,,2013-05-27 07:32:00,
2013-05-27 03:42:00,35.0,33.0,30.33,WNW,298,0.0,-999.0,92,-99.99,,,-99.99,,2013-05-27 07:42:00,
2013-05-27 03:53:00,35.0,33.0,30.33,WNW,298,0.0,-999.0,92,-99.99,,,-99.99,,2013-05-27 07:53:00,
2013-05-27 04:02:00,34.0,32.0,30.32,WNW,298,0.0,-999.0,92,-99.99,,,-99.99,,2013-05-27 08:02:00,
2013-05-27 04:11:00,34.0,32.0,30.32,WNW,298,0.0,-999.0,92,-99.99,,,-99.99,,2013-05-27 08:11:00,
2013-05-27 04:22:00,35.0,33.0,30.32,WNW,298,0.0,-999.0,93,-99.99,,,-99.99,,2013-05-27 08:22:00,
2013-05-27 04:33:00,35.0,33.0,30.32,WNW,298,2.0,-999.0,93,-99.99,,,-99.99,,2013-05-27 08:33:00,
2013-05-27 04:42:00,35.0,33.0,30.32,WNW,298,2.0,-999.0,93,-99.99,,,-99.99,,2013-05-27 08:42:00,
2013-05-27 04:52:00,33.0,31.0,30.32,WNW,298,0.0,-999.0,92,-99.99,,,-99.99,,2013-05-27 08:52:00,
2013-05-27 05:02:00,34.0,32.0,30.32,NW,326,1.0,-999.0,93,-99.99,,,-99.99,,2013-05-27 09:02:00,
2013-05-27 05:11:00,34.0,32.0,30.32,NW,326,1.0,-999.0,93,-99.99,,,-99.99,,2013-05-27 09:11:00,
2013-05-27 05:22:00,33.0,31.0,30.33,West,261,0.0,-999.0,92,-99.99,,,-99.99,,2013-05-27 09:22:00,
2013-05-27 05:33:00,33.0,31.0,30.33,West,261,0.0,-999.0,93,-99.99,,,-99.99,,2013-05-27 09:33:00,
2013-05-27 05:42:00,33.0,31.0,30.33,West,261,0.0,-999.0,93,-99.99,,,-99.99,,2013-05-27 09:42:00,
2013-05-27 05:53:00,33.0,31.0,30.34,West,262,1.0,-999.0,93,-99.99,,,-99.99,,2013-05-27 09:53:00,
2013-05-27 06:03:00,33.0,31.0,30.35,West,261,0.0,-999.0,93,-99.99,,,-99.99,,2013-05-27 10:03:00,
2013-05-27 06:12:00,33.0,31.0,30.35,West,261,0.0,-999.0,93,-99.99,,,-99.99,,2013-05-27 10:12:00,
2013-05-27 06:22:00,32.0,30.0,30.35,West,262,1.0,-999.0,93,-99.99,,,-99.99,,2013-05-27 10:22:00,
2013-05-27 06:32:00,33.0,31.0,30.35,West,261,1.0,-999.0,94,-99.99,,,-99.99,,2013-05-27 10:32:00,
2013-05-27 06:42:00,33.0,31.0,30.35,West,261,1.0,-999.0,94,-99.99,,,-99.99,,2013-05-27 10:42:00,
2013-05-27 06:52:00,35.0,34.0,30.34,West,262,1.0,-999.0,95,-99.99,,,-99.99,,2013-05-27 10:52:00,
2013-05-27 07:02:00,36.0,34.0,30.34,West,262,1.0,-999.0,94,-99.99,,,-99.99,,2013-05-27 11:02:00,
2013-05-27 07:11:00,36.0,34.0,30.34,West,262,1.0,-999.0,94,-99.99,,,-99.99,,2013-05-27 11:11:00,
2013-05-27 07:22:00,38.0,36.0,30.34,East,94,3.0,-999.0,94,-99.99,,,-99.99,,2013-05-27 11:22:00,
2013-05-27 07:32:00,38.0,36.0,30.34,SE,140,2.0,-999.0,92,-99.99,,,-99.99,,2013-05-27 11:32:00,
2013-05-27 07:42:00,38.0,36.0,30.34,SE,140,2.0,-999.0,92,-99.99,,,-99.99,,2013-05-27 11:42:00,
2013-05-27 07:52:00,40.0,38.0,30.34,SE,140,0.0,-999.0,93,-99.99,,,-99.99,,2013-05-27 11:52:00,
2013-05-27 08:01:00,42.0,40.0,30.33,SE,140,0.0,-999.0,93,-99.99,,,-99.99,,2013-05-27 12:01:00,
2013-05-27 08:11:00,42.0,40.0,30.33,SE,140,0.0,-999.0,93,-99.99,,,-99.99,,2013-05-27 12:11:00,
2013-05-27 08:22:00,45.0,43.0,30.34,SE,140,0.0,-999.0,91,-99.99,,,-99.99,,2013-05-27 12:22:00,
2013-05-27 08:32:00,48.0,44.0,30.33,SE,140,0.0,-999.0,87,-99.99,,,-99.99,,2013-05-27 12:32:00,
2013-05-27 08:42:00,48.0,44.0,30.33,SE,140,0.0,-999.0,87,-99.99,,,-99.99,,2013-05-27 12:42:00,
2013-05-27 08:52:00,51.0,45.0,30.33,SE,140,0.0,-999.0,79,-99.99,,,-99.99,,2013-05-27 12:52:00,
2013-05-27 09:02:00,53.0,45.0,30.32,SE,140,0.0,-999.0,75,-99.99,,,-99.99,,2013-05-27 13:02:00,
2013-05-27 09:11:00,53.0,45.0,30.32,SE,140,0.0,-999.0,75,-99.99,,,-99.99,,2013-05-27 13:11:00,
2013-05-27 09:22:00,55.0,45.0,30.33,SE,140,0.0,-999.0,70,-99.99,,,-99.99,,2013-05-27 13:22:00,
2013-05-27 09:32:00,55.0,45.0,30.33,SE,140,0.0,-999.0,70,-99.99,,,-99.99,,2013-05-27 13:32:00,
2013-05-27 09:42:00,55.0,45.0,30.33,SE,140,0.0,-999.0,70,-99.99,,,-99.99,,2013-05-27 13:42:00,
2013-05-27 09:52:00,58.0,47.0,30.32,SE,140,0.0,-999.0,66,-99.99,,,-99.99,,2013-05-27 13:52:00,
2013-05-27 10:02:00,60.0,46.0,30.32,SSE,153,0.0,-999.0,60,-99.99,,,-99.99,,2013-05-27 14:02:00,
2013-05-27 10:11:00,60.0,46.0,30.32,SSE,153,0.0,-999.0,60,-99.99,,,-99.99,,2013-05-27 14:11:00,
2013-05-27 10:22:00,61.0,45.0,30.32,SSW,213,1.0,-999.0,55,-99.99,,,-99.99,,2013-05-27 14:22:00,
2013-05-27 10:32:00,62.0,43.0,30.33,SSW,213,1.0,-999.0,49,-99.99,,,-99.99,,2013-05-27 14:32:00,
2013-05-27 10:42:00,62.0,43.0,30.33,SSW,213,1.0,-999.0,49,-99.99,,,-99.99,,2013-05-27 14:42:00,
2013-05-27 10:52:00,63.0,38.0,30.32,SSW,213,0.0,-999.0,39,-99.99,,,-99.99,,2013-05-27 14:52:00,
2013-05-27 11:02:00,64.0,43.0,30.32,WNW,285,2.0,-999.0,47,-99.99,,,-99.99,,2013-05-27 15:02:00,
2013-05-27 11:11:00,64.0,43.0,30.32,WNW,285,2.0,-999.0,47,-99.99,,,-99.99,,2013-05-27 15:11:00,
2013-05-27 11:22:00,64.0,41.0,30.32,WSW,252,3.0,-999.0,43,-99.99,,,-99.99,,2013-05-27 15:22:00,
2013-05-27 11:33:00,65.0,43.0,30.31,NW,308,2.0,-999.0,45,-99.99,,,-99.99,,2013-05-27 15:33:00,
2013-05-27 11:43:00,65.0,43.0,30.31,NW,308,2.0,-999.0,45,-99.99,,,-99.99,,2013-05-27 15:43:00,
2013-05-27 11:53:00,65.0,42.0,30.31,West,259,2.0,-999.0,43,-99.99,,,-99.99,,2013-05-27 15:53:00,
2013-05-27 12:03:00,66.0,40.0,30.30,West,259,2.0,-999.0,39,-99.99,,,-99.99,,2013-05-27 16:03:00,
2013-05-27 12:12:00,66.0,40.0,30.30,West,259,2.0,-999.0,39,-99.99,,,-99.99,,2013-05-27 16:12:00,
2013-05-27 12:23:00,66.0,38.0,30.30,SSE,163,5.0,-999.0,36,-99.99,,,-99.99,,2013-05-27 16:23:00,
2013-05-27 12:33:00,66.0,40.0,30.29,SW,236,4.0,-999.0,38,-99.99,,,-99.99,,2013-05-27 16:33:00,
2013-05-27 12:42:00,66.0,40.0,30.29,SW,236,4.0,-999.0,38,-99.99,,,-99.99,,2013-05-27 16:42:00,
2013-05-27 12:52:00,67.0,41.0,30.28,West,276,2.0,-999.0,38,-99.99,,,-99.99,,2013-05-27 16:52:00,
2013-05-27 13:02:00,68.0,41.0,30.27,SW,234,2.0,-999.0,37,-99.99,,,-99.99,,2013-05-27 17:02:00,
2013-05-27 13:12:00,68.0,41.0,30.27,SW,234,2.0,-999.0,37,-99.99,,,-99.99,,2013-05-27 17:12:00,
2013-05-27 13:22:00,68.0,45.0,30.27,SSE,148,4.0,-999.0,44,-99.99,,,-99.99,,2013-05-27 17:22:00,
2013-05-27 13:32:00,68.0,46.0,30.26,South,186,7.0,-999.0,45,-99.99,,,-99.99,,2013-05-27 17:32:00,
2013-05-27 13:43:00,68.0,46.0,30.26,South,186,7.0,-999.0,45,-99.99,,,-99.99,,2013-05-27 17:43:00,
2013-05-27 13:52:00,68.0,46.0,30.26,South,186,7.0,-999.0,45,-99.99,,,-99.99,,2013-05-27 17:52:00,
2013-05-27 14:02:00,68.0,43.0,30.24,South,176,7.0,-999.0,40,-99.99,,,-99.99,,2013-05-27 18:02:00,
2013-05-27 14:11:00,68.0,43.0,30.24,South,176,7.0,-999.0,40,-99.99,,,-99.99,,2013-05-27 18:11:00,
2013-05-27 14:22:00,69.0,41.0,30.25,SSW,207,7.0,-999.0,36,-99.99,,,-99.99,,2013-05-27 18:22:00,
2013-05-27 14:32:00,69.0,39.0,30.25,South,173,8.0,-999.0,33,-99.99,,,-99.99,,2013-05-27 18:32:00,
2013-05-27 14:42:00,69.0,39.0,30.25,South,173,8.0,-999.0,33,-99.99,,,-99.99,,2013-05-27 18:42:00,
2013-05-27 14:52:00,68.0,41.0,30.24,South,184,10.0,-999.0,38,-99.99,,,-99.99,,2013-05-27 18:52:00,
2013-05-27 15:01:00,69.0,41.0,30.24,SSW,193,9.0,-999.0,36,-99.99,,,-99.99,,2013-05-27 19:01:00,
2013-05-27 15:11:00,69.0,41.0,30.24,SSW,193,9.0,-999.0,36,-99.99,,,-99.99,,2013-05-27 19:11:00,
2013-05-27 15:22:00,69.0,41.0,30.24,South,169,7.0,-999.0,36,-99.99,,,-99.99,,2013-05-27 19:22:00,
2013-05-27 15:32:00,69.0,41.0,30.24,South,169,7.0,-999.0,36,-99.99,,,-99.99,,2013-05-27 19:32:00,
2013-05-27 15:42:00,69.0,41.0,30.24,South,169,7.0,-999.0,36,-99.99,,,-99.99,,2013-05-27 19:42:00,
2013-05-27 15:52:00,69.0,42.0,30.24,ESE,113,8.0,-999.0,38,-99.99,,,-99.99,,2013-05-27 19:52:00,
2013-05-27 16:02:00,69.0,42.0,30.23,SE,144,8.0,-999.0,37,-99.99,,,-99.99,,2013-05-27 20:02:00,
2013-05-27 16:11:00,69.0,42.0,30.23,SE,144,8.0,-999.0,37,-99.99,,,-99.99,,2013-05-27 20:11:00,
2013-05-27 16:22:00,69.0,41.0,30.23,SSW,207,10.0,-999.0,36,-99.99,,,-99.99,,2013-05-27 20:22:00,
2013-05-27 16:32:00,68.0,37.0,30.23,SE,146,8.0,-999.0,32,-99.99,,,-99.99,,2013-05-27 20:32:00,
2013-05-27 16:42:00,68.0,41.0,30.22,SSE,165,7.0,-999.0,38,-99.99,,,-99.99,,2013-05-27 20:42:00,
2013-05-27 16:52:00,68.0,41.0,30.22,SSE,165,7.0,-999.0,38,-99.99,,,-99.99,,2013-05-27 20:52:00,
2013-05-27 17:01:00,68.0,42.0,30.21,SSE,167,7.0,-999.0,39,-99.99,,,-99.99,,2013-05-27 21:01:00,
2013-05-27 17:12:00,68.0,42.0,30.21,SSE,167,7.0,-999.0,39,-99.99,,,-99.99,,2013-05-27 21:12:00,
2013-05-27 17:22:00,68.0,41.0,30.20,South,169,7.0,-999.0,38,-99.99,,,-99.99,,2013-05-27 21:22:00,
2013-05-27 17:33:00,67.0,39.0,30.19,SE,134,10.0,-999.0,36,-99.99,,,-99.99,,2013-05-27 21:33:00,
2013-05-27 17:43:00,66.0,37.0,30.19,SSE,168,11.0,-999.0,34,-99.99,,,-99.99,,2013-05-27 21:43:00,
2013-05-27 17:53:00,66.0,37.0,30.19,SSE,168,11.0,-999.0,34,-99.99,,,-99.99,,2013-05-27 21:53:00,
2013-05-27 18:02:00,66.0,37.0,30.19,SE,146,10.0,-999.0,34,-99.99,,,-99.99,,2013-05-27 22:02:00,
2013-05-27 18:13:00,66.0,37.0,30.19,SE,146,10.0,-999.0,34,-99.99,,,-99.99,,2013-05-27 22:13:00,
2013-05-27 18:23:00,66.0,40.0,30.18,South,183,10.0,-999.0,38,-99.99,,,-99.99,,2013-05-27 22:23:00,
2013-05-27 18:33:00,67.0,38.0,30.18,SSE,153,8.0,-999.0,35,-99.99,,,-99.99,,2013-05-27 22:33:00,
2013-05-27 18:42:00,67.0,38.0,30.18,SSE,153,8.0,-999.0,35,-99.99,,,-99.99,,2013-05-27 22:42:00,
2013-05-27 18:52:00,66.0,38.0,30.18,SSE,168,9.0,-999.0,36,-99.99,,,-99.99,,2013-05-27 22:52:00,
2013-05-27 19:02:00,65.0,38.0,30.18,SSE,159,10.0,-999.0,37,-99.99,,,-99.99,,2013-05-27 23:02:00,
2013-05-27 19:12:00,65.0,38.0,30.18,SSE,159,10.0,-999.0,37,-99.99,,,-99.99,,2013-05-27 23:12:00,
2013-05-27 19:22:00,65.0,39.0,30.18,SSE,148,9.0,-999.0,38,-99.99,,,-99.99,,2013-05-27 23:22:00,
2013-05-27 19:32:00,63.0,36.0,30.18,South,172,8.0,-999.0,36,-99.99,,,-99.99,,2013-05-27 23:32:00,
2013-05-27 19:42:00,63.0,36.0,30.18,South,172,8.0,-999.0,36,-99.99,,,-99.99,,2013-05-27 23:42:00,
2013-05-27 19:52:00,63.0,38.0,30.18,South,186,8.0,-999.0,39,-99.99,,,-99.99,,2013-05-27 23:52:00,
2013-05-27 20:01:00,62.0,37.0,30.19,SSE,161,7.0,-999.0,39,-99.99,,,-99.99,,2013-05-28 00:01:00,
2013-05-27 20:11:00,62.0,37.0,30.19,SSE,161,7.0,-999.0,39,-99.99,,,-99.99,,2013-05-28 00:11:00,
2013-05-27 20:22:00,61.0,35.0,30.19,SE,133,8.0,-999.0,38,-99.99,,,-99.99,,2013-05-28 00:22:00,
2013-05-27 20:32:00,60.0,38.0,30.18,SSE,162,4.0,-999.0,44,-99.99,,,-99.99,,2013-05-28 00:32:00,
2013-05-27 20:42:00,60.0,38.0,30.18,SSE,162,4.0,-999.0,44,-99.99,,,-99.99,,2013-05-28 00:42:00,
2013-05-27 20:52:00,60.0,38.0,30.18,SSE,162,4.0,-999.0,44,-99.99,,,-99.99,,2013-05-28 00:52:00,
2013-05-27 21:01:00,58.0,35.0,30.18,ESE,115,2.0,-999.0,42,-99.99,,,-99.99,,2013-05-28 01:01:00,
2013-05-27 21:11:00,58.0,35.0,30.18,ESE,115,2.0,-999.0,42,-99.99,,,-99.99,,2013-05-28 01:11:00,
2013-05-27 21:22:00,57.0,36.0,30.17,SE,124,2.0,-999.0,45,-99.99,,,-99.99,,2013-05-28 01:22:00,
2013-05-27 21:32:00,57.0,36.0,30.17,SE,124,2.0,-999.0,45,-99.99,,,-99.99,,2013-05-28 01:32:00,
2013-05-27 21:42:00,57.0,36.0,30.17,SE,124,2.0,-999.0,45,-99.99,,,-99.99,,2013-05-28 01:42:00,
2013-05-27 21:52:00,56.0,35.0,30.16,ESE,106,2.0,-999.0,45,-99.99,,,-99.99,,2013-05-28 01:52:00,
2013-05-27 22:02:00,55.0,35.0,30.16,ESE,109,2.0,-999.0,47,-99.99,,,-99.99,,2013-05-28 02:02:00,
2013-05-27 22:11:00,55.0,35.0,30.16,ESE,109,2.0,-999.0,47,-99.99,,,-99.99,,2013-05-28 02:11:00,
2013-05-27 22:22:00,54.0,35.0,30.16,ESE,113,2.0,-999.0,49,-99.99,,,-99.99,,2013-05-28 02:22:00,
2013-05-27 22:32:00,54.0,36.0,30.16,ESE,109,3.0,-999.0,50,-99.99,,,-99.99,,2013-05-28 02:32:00,
2013-05-27 22:42:00,54.0,36.0,30.16,ESE,109,3.0,-999.0,50,-99.99,,,-99.99,,2013-05-28 02:42:00,
2013-05-27 22:52:00,54.0,35.0,30.16,East,96,3.0,-999.0,49,-99.99,,,-99.99,,2013-05-28 02:52:00,
2013-05-27 23:01:00,52.0,35.0,30.16,East,94,1.0,-999.0,53,-99.99,,,-99.99,,2013-05-28 03:01:00,
2013-05-27 23:11:00,52.0,35.0,30.16,East,94,1.0,-999.0,53,-99.99,,,-99.99,,2013-05-28 03:11:00,
2013-05-27 23:22:00,53.0,35.0,30.15,East,94,3.0,-999.0,51,-99.99,,,-99.99,,2013-05-28 03:22:00,
2013-05-27 23:33:00,52.0,35.0,30.15,East,89,3.0,-999.0,53,-99.99,,,-99.99,,2013-05-28 03:33:00,
2013-05-27 23:43:00,52.0,35.0,30.15,East,89,3.0,-999.0,53,-99.99,,,-99.99,,2013-05-28 03:43:00,
2013-05-27 23:53:00,50.0,36.0,30.14,ENE,78,3.0,-999.0,59,-99.99,,,-99.99,,2013-05-28 03:53:00,